Location: Ferma
(41.9500°N, 44.5167°E)
Time: 15:19:01
(UTC+00:00)

Cosmos 839 Rocket - Pass Details

Date: 24 October 2021
Orbit: 964 x 2088 km, 65.9° (Epoch: 07 December)

Event Time Altitude Azimuth Distance (km) Brightness Sun altitude
Rises 15:00:51 0° 329° (NNW) 4,408 7.8 -10.7°
Reaches altitude 10° 15:04:02 10° 333° (NNW) 3,273 7.0 -11.3°
Maximum altitude 15:11:28 56° 51° (NE) 1,276 4.3 -12.7°
Drops below altitude 10° 15:17:41 10° 130° (SE) 2,751 5.9 -13.8°
Enters shadow 15:18:31 - 132° (SE) 3,056 6.2 -14.0°
